Regional Weather Roundup
Issued by NWS Green Bay, WI

Home | Current Version | Previous Version | Graphics & Text | Print | Product List | Glossary Off
Versions: 1 2 3 4 5 6 7 8 9 10 11 12 13 14 15 16 17 18 19 20 21 22 23 24 25 26 27 28 29 30 31 32 33 34 35 36 37 38 39 40 41 42 43 44 45 46 47 48 49 50

531
ASUS43 KGRB 220800
RWRGRB

NORTH-CENTRAL AND NORTHEAST WISCONSIN REGIONAL WEATHER ROUNDUP
NATIONAL WEATHER SERVICE GREEN BAY WI
300 AM CDT SUN OCT 22 2017

WIZ005-009-010>012-018-019-220900-
NORTH CENTRAL WISCONSIN

CITY           SKY/WX    TMP DP  RH WIND       PRES   REMARKS
IRONWOOD       CLOUDY    61  58  90 S10       29.75R
MANITOWISH WTR NOT AVBL
ARBOR VITAE    NOT AVBL
EAGLE RIVER    NOT AVBL
LAND O LAKES   CLOUDY    60  58  93 S8        29.83S
RHINELANDER    LGT RAIN  59  59 100 SE3       29.82F
PHILLIPS       DRIZZLE   59  59 100 SW12G17   29.77F
ANTIGO         NOT AVBL
TOMAHAWK       DRIZZLE   59  58  96 SE3       29.82F
MERRILL        RAIN      60  60 100 S5        29.83F
$$

WIZ013-073-220900-
NORTHEAST WISCONSIN

CITY           SKY/WX    TMP DP  RH WIND       PRES   REMARKS
IRON MOUNTAIN  CLOUDY    63  55  75 S12G21    29.84F
MARINETTE      PTCLDY    64  57  78 S8        29.89S
$$

WIZ017-030-035>037-045-220900-
CENTRAL WISCONSIN

CITY           SKY/WX    TMP DP  RH WIND       PRES   REMARKS
MEDFORD        NOT AVBL
WAUSAU         CLOUDY    60  59  96 S8        29.83F
MOSINEE        CLOUDY    59  59 100 S10       29.86S
MARSHFIELD     LGT RAIN  61  58  90 S10       29.83F
WISC RAPIDS    CLOUDY    61  60  97 S5        29.85F
STEVENS POINT  NOT AVBL
WAUPACA        CLOUDY    68  59  73 S7        29.86F
SHAWANO        MOCLDY    67  58  75 S8        29.85F
CLINTONVILLE   NOT AVBL
WAUTOMA        CLOUDY   N/A N/A N/A SW5       29.86F
$$

WIZ038-039-048-051-220900-
FOX VALLEY

CITY           SKY/WX    TMP DP  RH WIND       PRES   REMARKS
NWS GREEN BAY  CLOUDY    67  59  75 S12       29.88F
APPLETON       NOT AVBL
OSHKOSH        PTCLDY    66  58  75 S16       29.87S
FOND DU LAC    MOCLDY    68  55  63 S12G18    29.88F
$$

WIZ022-050-052-220900-
EAST CENTRAL WISCONSIN

CITY           SKY/WX    TMP DP  RH WIND       PRES   REMARKS
EPHRAIM        PTSUNNY   60  55  84 S14G22    29.90F
WASHINGTON ISL NOT AVBL
STURGEON BAY   PTCLDY    59  55  87 S17G23    29.90F
MANITOWOC      CLOUDY    60  55  83 S17       29.92F
SHEBOYGAN      CLOUDY    61  57  87 S13       29.92F
$$

LMZ563-521-522-541>543-220900-
LAKESHORE

STATION/POSITION TIME  TEMP    WIND        PRES    VSBY  WAVE
                       AIR SEA DIR/SP/G                  HT/PER
                 (UTC) (F)     (DEG/KT/KT) (MB)    (MI)  (FT/S)
SHEBOYGAN LKSHOR 0700   56     180/ 19/ 20 1013.5F
KEWAUNEE LKSHORE 0730   55     180/ 14/ 16 1012.4F
NORTHPORT PIER   0740   61     160/ 11/ 20 1012.9F
N MID LAKE BUOY  0650   63 58  180/ 19/ 23 1014.1R         6/ 7
S GREEN BAY BUOY 0730   62 58  170/ 14/ 16 1011.9F
SISTER BAY LKSHO 0704   62     170/ 21/ 26   N/A
MENOMINEE LKSHOR 0730   61     160/ 11/ 13 1012.0R
$$




USA.gov is the U.S. government's official web portal to all federal, state and local government web resources and services.